FENGYUN 1C DEB, 30064

Orbit data source: Space-Track

FENGYUN 1C DEB, 30064 is space debris in SSO originally from a launch on Mon, 10 May 1999 UTC launched from the Taiyaun Space Center, China (TSC). Fengyun 1C debris stems from the Chinese weather satellite Fengyun-1C, which was intentionally destroyed by a Chinese anti-satellite missile in 2007. This event dramatically increased the amount of space debris, with thousands of trackable fragments posing hazards to satellites and human spaceflight. The Fengyun 1C debris cloud has become a focal point in discussions about space sustainability and the need for international regulations to prevent the creation of new debris.

Loading next visibility...
Identifier
30064, 1999-025PR
Orbit
SSO
Country
Flag of CNCN / PRC
Related business
Manufacturer
Unknown
Mission
Spacecraft
Bus & Motor
Unknown
Mass
Unknown
Launch date (UTC)
1999-05-10 (27 years ago)
Launch vehicle
Unknown
Launch site
Taiyaun Space Center, China (TSC)
Object type
Payload
Rocket body
Debris
Shape & HBR
Unknown shape, 0.1 m
Radar Cross Section
Small (<0.1 m²)

Expand to show TLE details & history
Last TLE update: 11 hours ago

TLE from 11 hours ago
0 FENGYUN 1C DEB
1 30064U 99025PR  25353.29587987  .00000235  00000-0  14185-3 0  9993
2 30064  98.6613   4.1480 0066692  92.9501 289.0775 14.14273885975989
Epoch: 2025-12-19T07:06Z
TLE epoch observation values (Epoch: 2025-12-19T07:06:04.020Z)
Latitude
21.05819°
Longitude
166.14757°
Altitude
831.912 km
Speed
7.447 km/s
True Right ascension
00h 03m 12s
True Declination
20° 56' 40"
Sunlit
Object was in daylight at epoch
Visualization orbit readout
Latitude
Unknown
Longitude
Unknown
Altitude
Unknown
Speed
Unknown
Apparent Right ascension
Unknown
Apparent Declination
Unknown
Sunlit
N/A
Visualization observer readout
Local Sidereal Time
17:17:38
Azimuth
Unknown
Elevation
Unknown
Doppler factor
Unknown
Orbital elements
Apogee altitude
890.099 km
Perigee altitude
793.795 km
Semi-major axis
7,220.084 km
Eccentricity
0.00667
Inclination
98.6613°
RAAN
4.148°
Arg. of periapsis
92.9501°
True anomaly
288.35329°
Mean anomaly
289.0775°
Eccentric anomaly
288.71559°
Mean motion
3.53777 °/min
Orbital period
101.76 mins
BSTAR
0.00014185
Loading maneuver chart data...
Computing Atmospheric mass density...

Documentation

Showing up to 5 results
|